Location: Barrio de Buenos Aires
(28.4500°N, 16.2667°W)
Time: 04:08:21
(UTC+00:00)

Ariane Rocket - Pass Details

Date: 24 January 2020
Orbit: 761 x 769 km, 98.7° (Epoch: 17 February)

Event Time Altitude Azimuth Distance (km) Brightness Sun altitude
Rises 20:23:06 0° 162° (SSE) 3,208 6.1 -23.1°
Reaches altitude 10° 20:25:23 10° 160° (SSE) 2,287 5.3 -23.6°
Maximum altitude 20:30:24 74° 76° (ENE) 793 2.8 -24.7°
Drops below altitude 10° 20:35:28 10° 352° (N) 2,303 5.5 -25.8°
Sets 20:37:47 0° 350° (N) 3,234 6.3 -26.3°
